Home   Weather   Bursa   Past weeks

Flag for Turkey Past Weather in Bursa, Turkey — Yesterday and Last 2 Weeks

Now
51 °F

Passing clouds.


Feels Like: 48 °F
Forecast: 36 / 68 °F
Wind: 8 mph from Southwest

Location: Bursa

Current Time: Apr 24, 2017 at 6:30:02 am

Latest Report: Apr 24, 2017 at 3:00 am


Visibility: 9 mi

Pressure: 30.12 "Hg

Humidity: 77%

Dew Point: 44 °F

Location of BursaLocation

Past Weather in Bursa — Graph

°F

Bursa Temperature Yesterday

Maximum temperature yesterday: 59 °F (at 4:00 pm)
Minimum temperature yesterday: 41 °F (at 6:00 am)
Average temperature yesterday: 52 °F

High & Low Weather Summary for the Past Weeks

 TemperatureHumidityPressure
High78 °F (Apr 20, 3:00 pm)99% (Apr 19, 12:00 am)30.29 "Hg (Apr 19, 12:00 am)
Low36 °F (Apr 11, 7:00 am)33% (Apr 11, 2:00 pm)29.70 "Hg (Apr 20, 4:00 pm)
Average55 °F68%29.98 "Hg
* Reported Apr 9 3:00 am — Apr 24 3:00 am, Bursa, Weather by CustomWeather, © 2017

Note: Actual official high and low records may vary slightly from our data, if they occured in-between our weather recording intervals... More about our weather records

Advertising

Bursa Weather History for the Previous 24 Hours

Scroll right to see more
 ConditionsComfort  
Time TempWeatherWind HumidityBarometerVisibility
3:00 am
Mon, Apr 24
51 °FPassing clouds.8 mph77%30.12 "Hg9 mi
12:00 am53 °FPassing clouds.7 mph63%30.07 "Hg9 mi
9:00 pm
Sun, Apr 23
55 °FPassing clouds.9 mph59%30.04 "Hg9 mi
8:00 pm55 °FPassing clouds.7 mph63%30.02 "Hg9 mi
7:00 pm58 °FPartly sunny.7 mph58%30.01 "Hg9 mi
6:00 pm59 °FPartly sunny.8 mph57%30.00 "Hg9 mi
5:00 pm57 °FPartly sunny.10 mph57%29.99 "Hg9 mi
4:00 pm59 °FPartly sunny.13 mph56%29.98 "Hg9 mi
3:00 pm56 °FPartly sunny.10 mph67%29.99 "Hg9 mi
2:00 pm56 °FScattered clouds.13 mph59%29.99 "Hg9 mi
1:00 pm55 °FScattered clouds.10 mph63%29.99 "Hg9 mi
12:00 pm52 °FScattered clouds.7 mph67%29.97 "Hg9 mi
11:00 am49 °FScattered clouds.6 mph65%29.97 "Hg9 mi
10:00 am45 °FPartly sunny.5 mph81%29.97 "Hg6 mi
9:00 am41 °FSprinkles. Overcast.9 mph94%29.96 "Hg5 mi
6:00 am41 °FSprinkles. Overcast.6 mph91%29.88 "Hg4 mi
Weather by CustomWeather, © 2017

See weather overviewHow to use our weather pages